GW4564 Weather Reports


time (UTC)temp
C
wind
direction
speed
KPH
gust
KPH
rain 1hr
cm
rain 24hr
cm
rain mn
cm
humidity
%
barometer
mb
20260906155020 23 82 8.0 11.3 0.00 0.00 0.00 83 1020.4
20260906154534 23 126 4.8 9.7 0.00 0.00 0.00 85 1020.5
20260906154021 22 160 6.4 12.9 0.00 0.00 0.00 84 1020.6
20260906153520 22 115 9.7 12.9 0.00 0.00 0.00 84 1020.6
20260906153033 22 141 8.0 12.9 0.00 0.00 0.00 85 1020.6
20260906152517 22 115 6.4 12.9 0.00 0.00 0.00 86 1020.5
20260906152015 22 136 4.8 12.9 0.00 0.00 0.00 87 1020.5
20260906151534 22 77 6.4 12.9 0.00 0.00 0.00 86 1020.5
20260906151019 22 101 6.4 11.3 0.00 0.00 0.00 87 1020.4
20260906150518 22 82 6.4 11.3 0.00 0.00 0.00 87 1020.3
20260906150046 22 95 6.4 16.1 0.00 0.00 0.00 87 1020.2
20260906145514 22 104 9.7 16.1 0.00 0.00 0.00 87 1020.1
20260906145019 21 117 8.0 14.5 0.00 0.00 0.00 88 1020.1
20260906144533 21 113 8.0 14.5 0.00 0.00 0.00 88 1020.2
20260906144018 21 151 8.0 14.5 0.00 0.00 0.00 88 1020.0
20260906143518 21 119 6.4 12.9 0.00 0.00 0.00 89 1019.9
20260906143031 21 114 8.0 12.9 0.00 0.00 0.00 88 1019.9
20260906142516 21 95 9.7 14.5 0.00 0.00 0.00 89 1019.9
20260906142017 21 110 8.0 14.5 0.00 0.00 0.00 89 1019.9
20260906141536 21 96 6.4 14.5 0.00 0.00 0.00 90 1019.9
20260906141018 21 96 8.0 14.5 0.00 0.00 0.00 90 1019.8
20260906140514 20 77 6.4 12.9 0.00 0.00 0.00 90 1019.9
20260906140039 20 72 8.0 12.9 0.00 0.00 0.00 91 1019.9
20260906135519 20 106 9.7 12.9 0.00 0.00 0.00 91 1019.9
20260906135018 20 108 6.4 9.7 0.00 0.00 0.00 91 1019.9
20260906134531 20 122 6.4 12.9 0.00 0.00 0.00 92 1019.8
20260906134021 20 65 8.0 12.9 0.00 0.00 0.00 91 1019.9
20260906133519 20 120 4.8 12.9 0.00 0.00 0.00 92 1019.8
20260906133032 20 79 6.4 12.9 0.00 0.00 0.00 92 1019.8
20260906132516 20 68 4.8 12.9 0.00 0.00 0.00 92 1019.8
20260906132011 20 85 6.4 12.9 0.00 0.00 0.00 92 1019.8
20260906131536 20 77 8.0 12.9 0.00 0.00 0.00 92 1019.7
20260906131019 20 81 4.8 9.7 0.00 0.00 0.00 92 1019.6
20260906130517 20 61 4.8 9.7 0.00 0.00 0.00 93 1019.6
20260906130036 19 96 4.8 8.0 0.00 0.00 0.00 93 1019.6
20260906125516 19 80 4.8 8.0 0.00 0.00 0.00 93 1019.7
20260906125016 19 84 4.8 9.7 0.00 0.00 0.00 93 1019.8
20260906124532 19 59 4.8 9.7 0.00 0.00 0.00 93 1019.8
20260906124016 18 84 4.8 9.7 0.00 0.00 0.00 93 1019.7
20260906123508 18 81 3.2 8.0 0.00 0.00 0.00 93 1019.8
20260906123030 18 77 4.8 8.0 0.00 0.00 0.00 93 1019.8
20260906122512 18 72 3.2 6.4 0.00 0.00 0.00 93 1019.9
20260906122012 18 59 3.2 6.4 0.00 0.00 0.00 93 1019.9
20260906121537 18 72 1.6 8.0 0.00 0.00 0.00 93 1019.8
20260906121011 18 81 3.2 8.0 0.00 0.00 0.00 93 1019.7
20260906120514 18 63 1.6 6.4 0.00 0.00 0.00 93 1019.7
20260906120029 18 91 1.6 6.4 0.00 0.00 0.00 93 1019.7
20260906115515 18 47 1.6 9.7 0.00 0.00 0.00 93 1019.6
20260906115014 18 63 3.2 9.7 0.00 0.00 0.00 93 1019.5
20260906114538 18 34 3.2 6.4 0.00 0.00 0.00 93 1019.5
20260906114015 18 68 3.2 8.0 0.00 0.00 0.00 93 1019.4
20260906113518 18 52 3.2 9.7 0.00 0.00 0.00 93 1019.3
20260906113044 18 57 4.8 9.7 0.00 0.00 0.00 93 1019.2
20260906112508 18 32 1.6 4.8 0.00 0.00 0.00 93 1019.2
20260906112008 18 35 3.2 4.8 0.00 0.00 0.00 93 1019.1
20260906111524 18 41 1.6 6.4 0.00 0.00 0.00 93 1019.1
20260906111011 18 51 3.2 6.4 0.00 0.00 0.00 93 1019.1
20260906110504 18 32 1.6 6.4 0.00 0.00 0.00 93 1019.1
20260906110005 18 44 3.2 6.4 0.00 0.00 0.00 93 1019.0
20260906105503 18 41 1.6 6.4 0.00 0.00 0.00 93 1018.8
20260906105003 18 64 3.2 6.4 0.00 0.00 0.00 93 1018.6
20260906104511 18 54 3.2 6.4 0.00 0.00 0.00 93 1018.5
20260906104004 18 57 3.2 4.8 0.00 0.00 0.00 93 1018.4
20260906103504 18 44 1.6 6.4 0.00 0.00 0.00 93 1018.4
20260906103018 18 52 1.6 6.4 0.00 0.00 0.00 93 1018.5
20260906102508 18 35 1.6 6.4 0.00 0.00 0.00 93 1018.4
20260906102008 18 75 3.2 8.0 0.00 0.00 0.00 93 1018.2
20260906101518 19 48 3.2 8.0 0.00 0.00 0.00 93 1018.1
20260906101010 18 34 3.2 8.0 0.00 0.00 0.00 93 1018.0
20260906100510 18 66 3.2 6.4 0.00 0.00 0.00 93 1017.9
20260906100027 18 72 1.6 4.8 0.00 0.00 0.00 93 1017.9
20260906095514 18 65 1.6 4.8 0.00 0.00 0.00 93 1017.9
20260906095014 18 53 1.6 6.4 0.00 0.00 0.00 93 1018.0
20260906094504 18 19 3.2 6.4 0.00 0.00 0.00 93 1017.9
20260906094003 19 93 1.6 4.8 0.00 0.00 0.00 93 1017.8
20260906093503 19 68 1.6 6.4 0.00 0.00 0.00 92 1017.7
20260906093011 19 103 3.2 6.4 0.00 0.00 0.00 92 1017.7
20260906092506 19 70 3.2 6.4 0.00 0.00 0.00 92 1017.6
20260906092008 19 102 1.6 4.8 0.00 0.00 0.00 92 1017.7
20260906091527 19 98 1.6 4.8 0.00 0.00 0.00 92 1017.8
20260906091018 19 59 1.6 4.8 0.00 0.00 0.00 92 1017.8
20260906090509 19 65 1.6 6.4 0.00 0.00 0.00 92 1017.8
20260906090028 19 90 3.2 6.4 0.00 0.00 0.00 92 1017.8
20260906085516 19 108 4.8 6.4 0.00 0.00 0.00 92 1017.9
20260906085012 20 77 1.6 4.8 0.00 0.00 0.00 92 1018.1
20260906084531 20 100 1.6 6.4 0.00 0.00 0.00 92 1018.1
20260906084013 20 29 1.6 6.4 0.00 0.00 0.00 92 1018.1
20260906083516 20 67 3.2 6.4 0.00 0.00 0.00 92 1018.1
20260906083013 20 96 1.6 6.4 0.00 0.00 0.00 92 1018.1
20260906082502 20 71 3.2 6.4 0.00 0.00 0.00 92 1018.1
20260906082006 20 74 3.2 6.4 0.00 0.00 0.00 92 1018.0
20260906081518 20 80 1.6 3.2 0.00 0.00 0.00 91 1018.1
20260906081007 20 83 1.6 3.2 0.00 0.00 0.00 91 1018.0
20260906080507 20 83 0.0 1.6 0.00 0.00 0.00 91 1018.0
20260906080019 20 58 0.0 3.2 0.00 0.00 0.00 91 1018.1
20260906075510 20 57 1.6 3.2 0.00 0.00 0.00 91 1018.1
20260906075010 20 8 0.0 3.2 0.00 0.00 0.00 91 1018.1
20260906074524 20 60 0.0 4.8 0.00 0.00 0.00 91 1018.1
20260906074013 20 52 1.6 8.0 0.00 0.00 0.00 91 1018.1
20260906073514 20 112 3.2 8.0 0.00 0.00 0.00 91 1017.9
20260906073030 20 63 4.8 9.7 0.00 0.00 0.00 90 1017.9
20260906072514 20 84 6.4 11.3 0.00 0.00 0.00 90 1018.0
20260906072017 20 74 6.4 11.3 0.00 0.00 0.00 90 1018.1
20260906071508 21 79 6.4 11.3 0.00 0.00 0.00 90 1018.0
20260906071004 21 68 4.8 12.9 0.00 0.00 0.00 90 1018.1
20260906070503 21 89 8.0 12.9 0.00 0.00 0.00 90 1018.1
20260906070016 21 77 6.4 12.9 0.00 0.00 0.00 90 1018.2
20260906065507 21 85 8.0 12.9 0.00 0.00 0.00 90 1018.2
20260906065011 21 76 6.4 11.3 0.00 0.00 0.00 90 1018.2
20260906064520 21 95 4.8 11.3 0.00 0.00 0.00 90 1018.4
20260906064012 21 71 4.8 11.3 0.00 0.00 0.00 90 1018.5
20260906063511 21 56 4.8 14.5 0.00 0.00 0.00 90 1018.5
20260906063028 21 112 8.0 14.5 0.00 0.00 0.00 90 1018.5
20260906062513 21 75 9.7 12.9 0.00 0.00 0.00 90 1018.2
20260906062016 21 60 6.4 11.3 0.00 0.00 0.00 90 1018.3
20260906061530 21 65 6.4 16.1 0.00 0.00 0.00 90 1018.2
20260906061013 21 86 6.4 16.1 0.00 0.00 0.00 90 1018.2
20260906060518 21 64 6.4 14.5 0.00 0.00 0.00 90 1018.1
20260906060034 22 67 8.0 12.9 0.00 0.00 0.00 90 1018.1
20260906055507 22 83 6.4 12.9 0.00 0.00 0.00 90 1018.1
20260906055003 22 99 6.4 14.5 0.00 0.00 0.00 90 1018.0
20260906054522 22 82 9.7 16.1 0.00 0.00 0.00 90 1018.0
20260906054011 22 50 8.0 16.1 0.00 0.00 0.00 90 1018.0
20260906053508 22 55 9.7 16.1 0.00 0.00 0.00 90 1018.1
20260906053034 22 38 6.4 12.9 0.00 0.00 0.00 90 1018.0
20260906052512 22 76 4.8 12.9 0.00 0.00 0.00 90 1018.0
20260906052014 22 69 6.4 9.7 0.00 0.00 0.00 90 1018.2
20260906051530 22 58 4.8 9.7 0.00 0.00 0.00 89 1018.3
20260906051017 22 43 4.8 9.7 0.00 0.00 0.00 89 1018.3
20260906050516 22 55 4.8 9.7 0.00 0.00 0.00 89 1018.2
20260906050044 22 69 4.8 9.7 0.00 0.00 0.00 89 1018.1
20260906045517 22 49 4.8 11.3 0.00 0.00 0.00 89 1018.1
20260906045014 22 32 4.8 11.3 0.00 0.00 0.00 89 1018.0
20260906044536 22 37 4.8 9.7 0.00 0.00 0.00 89 1018.0
20260906044009 22 51 6.4 9.7 0.00 0.00 0.00 90 1018.0
20260906043505 22 16 3.2 6.4 0.00 0.00 0.00 91 1017.9
20260906043020 22 36 1.6 4.8 0.00 0.00 0.00 91 1017.9
20260906042507 22 61 1.6 4.8 0.00 0.00 0.00 91 1017.8
20260906042011 22 13 1.6 4.8 0.00 0.00 0.00 91 1017.8
20260906041531 22 37 1.6 3.2 0.00 0.00 0.00 91 1017.7
20260906041011 22 304 0.0 1.6 0.00 0.00 0.00 91 1017.7
20260906040515 22 304 1.6 1.6 0.00 0.00 0.00 91 1017.7
20260906040034 22 348 0.0 3.2 0.00 0.00 0.00 91 1017.5
20260906035514 22 342 1.6 3.2 0.00 0.00 0.00 91 1017.6
20260906035014 22 336 0.0 4.8 0.00 0.00 0.00 91 1017.6
20260906034535 22 302 1.6 4.8 0.00 0.00 0.00 90 1017.5
20260906034018 22 6 0.0 3.2 0.00 0.00 0.00 90 1017.4
20260906033517 22 10 1.6 3.2 0.00 0.00 0.00 90 1017.2
20260906033044 22 7 0.0 1.6 0.00 0.00 0.00 90 1017.2
20260906032518 22 7 0.0 1.6 0.00 0.00 0.00 90 1017.2
20260906032007 22 20 0.0 1.6 0.00 0.00 0.00 90 1017.3
20260906031527 22 20 0.0 3.2 0.00 0.00 0.00 90 1017.2
20260906031012 22 21 0.0 3.2 0.00 0.00 0.00 90 1017.0
20260906030510 22 15 0.0 1.6 0.00 0.00 0.00 90 1017.0
20260906030025 22 15 0.0 1.6 0.00 0.00 0.00 90 1017.1
20260906025512 22 105 0.0 0.0 0.00 0.00 0.00 90 1017.0
20260906025018 22 106 0.0 0.0 0.00 0.00 0.00 89 1017.0
20260906024532 22 106 0.0 1.6 0.00 0.00 0.00 89 1017.0
20260906024019 22 106 0.0 1.6 0.00 0.00 0.00 88 1016.8
20260906023516 22 106 0.0 1.6 0.00 0.00 0.00 88 1016.7
20260906023035 23 106 0.0 1.6 0.00 0.00 0.00 87 1016.6
20260906022503 23 108 0.0 1.6 0.00 0.00 0.00 87 1016.5
20260906022008 23 110 0.0 3.2 0.00 0.00 0.00 87 1016.4
20260906021520 23 110 0.0 3.2 0.00 0.00 0.00 87 1016.3
20260906021007 23 110 1.6 4.8 0.00 0.00 0.00 87 1016.2
20260906020512 23 97 0.0 4.8 0.00 0.00 0.00 87 1016.2
20260906020027 23 94 0.0 4.8 0.00 0.00 0.00 87 1016.1
20260906015511 23 96 1.6 8.0 0.00 0.00 0.00 87 1016.1
20260906015004 23 61 3.2 8.0 0.00 0.00 0.00 87 1016.0
20260906014506 23 90 3.2 8.0 0.00 0.00 0.00 87 1016.0
20260906014003 23 68 4.8 8.0 0.00 0.00 0.00 86 1015.9
20260906013503 23 60 4.8 8.0 0.00 0.00 0.00 86 1015.9
20260906013013 23 59 3.2 9.7 0.00 0.00 0.00 86 1015.9
20260906012507 23 79 1.6 12.9 0.00 0.00 0.00 86 1015.9
20260906012007 23 65 6.4 12.9 0.00 0.00 0.00 87 1015.9
20260906011514 23 78 3.2 9.7 0.00 0.00 0.00 87 1015.9
20260906011005 23 71 4.8 11.3 0.00 0.00 0.00 87 1016.0
20260906010509 23 60 4.8 11.3 0.00 0.00 0.00 87 1016.0
20260906010023 23 81 3.2 11.3 0.00 0.00 0.00 86 1016.0
20260906005509 23 99 4.8 11.3 0.00 0.00 0.00 86 1015.9
20260906005012 23 80 4.8 12.9 0.00 0.00 0.00 86 1015.9
20260906004527 24 101 4.8 12.9 0.00 0.00 0.00 85 1015.8
20260906004013 24 94 6.4 12.9 0.00 0.00 0.00 84 1015.8
20260906003515 24 65 8.0 17.7 0.00 0.00 0.00 84 1015.9
20260906003007 25 59 8.0 17.7 0.00 0.00 0.00 84 1015.9
20260906002505 25 55 6.4 14.5 0.00 0.00 0.00 83 1016.0
20260906002019 25 38 6.4 19.3 0.00 0.00 0.00 83 1016.1
20260906001508 25 53 9.7 19.3 0.00 0.00 0.00 82 1016.1
20260906001017 25 54 6.4 14.5 0.00 0.00 0.00 81 1016.1
20260906000507 25 39 8.0 14.5 0.00 0.00 0.00 81 1016.1
20260906000033 26 25 8.0 14.5 0.00 0.00 0.00 80 1016.0
20260905235507 26 44 6.4 17.7 0.00 0.00 0.00 79 1016.0
20260905235023 26 70 8.0 17.7 0.00 0.00 0.00 79 1015.9
20260905234534 26 60 8.0 17.7 0.00 0.00 0.00 78 1015.9
20260905234019 26 60 8.0 17.7 0.00 0.00 0.00 77 1015.9
20260905233511 26 56 6.4 12.9 0.00 0.00 0.00 77 1015.9
20260905233026 27 64 8.0 16.1 0.00 0.00 0.00 76 1015.8
20260905232514 27 55 9.7 16.1 0.00 0.00 0.00 76 1015.7
20260905232016 27 25 8.0 19.3 0.00 0.00 0.00 76 1015.7
20260905231508 27 75 11.3 19.3 0.00 0.00 0.00 76 1015.7
20260905231016 27 60 12.9 19.3 0.00 0.00 0.00 76 1015.7
20260905230506 27 60 6.4 16.1 0.00 0.00 0.00 77 1015.6
20260905230011 27 77 4.8 16.1 0.00 0.00 0.00 77 1015.6
20260905225508 27 78 8.0 17.7 0.00 0.00 0.00 76 1015.6
20260905225008 27 117 9.7 17.7 0.00 0.00 0.00 77 1015.6
20260905224552 27 89 9.7 14.5 0.00 0.00 0.00 77 1015.7
20260905224012 27 77 4.8 19.3 0.00 0.00 0.00 76 1015.8
20260905223510 27 54 8.0 19.3 0.00 0.00 0.00 75 1015.8
20260905223023 27 56 9.7 19.3 0.00 0.00 0.00 75 1015.9
20260905222512 27 56 11.3 19.3 0.00 0.00 0.00 76 1015.9
20260905222013 27 323 6.4 25.7 0.00 0.00 0.00 78 1015.8
20260905221544 27 56 8.0 25.7 0.00 0.00 0.00 77 1015.8
20260905221019 27 4 8.0 22.5 0.00 0.00 0.00 78 1015.8
20260905220519 27 65 8.0 22.5 0.00 0.00 0.00 78 1015.7
20260905220011 27 44 12.9 17.7 0.00 0.00 0.00 77 1015.6
20260905215505 27 64 8.0 19.3 0.00 0.00 0.00 78 1015.6
20260905215004 28 55 9.7 20.9 0.00 0.00 0.00 77 1015.6
20260905214516 28 53 11.3 20.9 0.00 0.00 0.00 77 1015.7
20260905214018 28 72 9.7 17.7 0.00 0.00 0.00 78 1015.6
20260905213508 27 54 8.0 17.7 0.00 0.00 0.00 79 1015.5
20260905213020 27 54 9.7 17.7 0.00 0.00 0.00 79 1015.6
20260905212510 28 322 11.3 17.7 0.00 0.00 0.00 78 1015.7
20260905212018 28 47 8.0 16.1 0.00 0.00 0.00 79 1015.8
20260905211525 28 89 6.4 16.1 0.00 0.00 0.00 78 1015.8
20260905211015 28 36 8.0 19.3 0.00 0.00 0.00 79 1015.7
20260905210519 28 65 9.7 22.5 0.00 0.00 0.00 78 1015.6
20260905210036 28 62 11.3 22.5 0.00 0.00 0.00 77 1015.5
20260905205520 29 66 11.3 22.5 0.00 0.00 0.00 76 1015.3
20260905205016 30 49 9.7 20.9 0.00 0.00 0.00 77 1015.2
20260905204534 30 58 11.3 20.9 0.00 0.00 0.00 77 1015.1
20260905204008 30 56 9.7 20.9 0.00 0.00 0.00 77 1015.1
20260905203506 30 63 8.0 20.9 0.00 0.00 0.00 78 1015.1
20260905203017 30 60 11.3 19.3 0.00 0.00 0.00 75 1015.3
20260905202509 30 72 9.7 19.3 0.00 0.00 0.00 77 1015.3
20260905202017 30 56 9.7 19.3 0.00 0.00 0.00 77 1015.3
20260905201524 31 48 11.3 19.3 0.00 0.00 0.00 74 1015.4
20260905201020 31 80 9.7 14.5 0.00 0.00 0.00 74 1015.4
20260905200518 31 354 8.0 14.5 0.00 0.00 0.00 72 1015.6
20260905200028 32 351 9.7 14.5 0.00 0.00 0.00 72 1015.6
20260905195512 31 58 3.2 9.7 0.00 0.00 0.00 73 1015.6
20260905195020 31 350 4.8 12.9 0.00 0.00 0.00 73 1015.6
20260905194534 31 84 6.4 12.9 0.00 0.00 0.00 71 1015.6
20260905194017 31 25 4.8 11.3 0.00 0.00 0.00 71 1015.6
20260905193520 31 27 6.4 11.3 0.00 0.00 0.00 71 1015.6
20260905193038 31 1 0.0 8.0 0.00 0.00 0.00 75 1015.6
20260905192517 31 352 4.8 11.3 0.00 0.00 0.00 73 1015.6
20260905192010 31 65 6.4 11.3 0.00 0.00 0.00 72 1015.6
20260905191519 31 41 8.0 11.3 0.00 0.00 0.00 71 1015.6
20260905191010 31 53 6.4 12.9 0.00 0.00 0.00 74 1015.6
20260905190520 31 84 4.8 12.9 0.00 0.00 0.00 73 1015.6
20260905190027 31 55 6.4 9.7 0.00 0.00 0.00 73 1015.7
20260905185515 31 51 3.2 14.5 0.00 0.00 0.00 74 1015.7
20260905185014 31 46 4.8 14.5 0.00 0.00 0.00 72 1015.8
20260905184533 31 30 3.2 11.3 0.00 0.00 0.00 72 1015.8
20260905184017 31 52 4.8 12.9 0.00 0.00 0.00 71 1015.7
20260905183516 31 54 8.0 12.9 0.00 0.00 0.00 70 1015.8
20260905183033 31 60 3.2 11.3 0.00 0.00 0.00 72 1015.8
20260905182518 31 89 6.4 9.7 0.00 0.00 0.00 72 1015.8
20260905182017 31 20 4.8 12.9 0.00 0.00 0.00 73 1015.7
20260905181545 31 33 8.0 12.9 0.00 0.00 0.00 73 1015.6
20260905181007 31 354 4.8 11.3 0.00 0.00 0.00 72 1015.6
20260905180510 30 91 3.2 11.3 0.00 0.00 0.00 75 1015.7
20260905180024 30 58 8.0 12.9 0.00 0.00 0.00 74 1015.7
20260905175512 31 49 9.7 11.3 0.00 0.00 0.00 74 1015.8
20260905175010 31 86 6.4 11.3 0.00 0.00 0.00 73 1015.8
20260905174535 31 10 6.4 11.3 0.00 0.00 0.00 72 1015.7
20260905174020 31 43 4.8 11.3 0.00 0.00 0.00 72 1015.7
20260905173517 30 45 6.4 14.5 0.00 0.00 0.00 74 1015.9
20260905173035 30 73 6.4 14.5 0.00 0.00 0.00 73 1016.0
20260905172514 30 349 6.4 12.9 0.00 0.00 0.00 73 1016.0
20260905172017 31 54 4.8 9.7 0.00 0.00 0.00 73 1016.1
20260905171540 30 44 6.4 14.5 0.00 0.00 0.00 73 1016.1
20260905171015 30 44 6.4 14.5 0.00 0.00 0.00 73 1016.2
20260905170516 31 34 9.7 14.5 0.00 0.00 0.00 72 1016.2
20260905170032 31 65 6.4 14.5 0.00 0.00 0.00 73 1016.3
20260905165513 31 113 8.0 14.5 0.00 0.00 0.00 75 1016.3
20260905165012 30 77 8.0 12.9 0.00 0.00 0.00 74 1016.3
20260905164530 30 36 9.7 12.9 0.00 0.00 0.00 73 1016.3
20260905164018 30 103 4.8 16.1 0.00 0.00 0.00 74 1016.3
20260905163512 30 352 8.0 16.1 0.00 0.00 0.00 72 1016.3
20260905163034 31 30 8.0 14.5 0.00 0.00 0.00 73 1016.2
20260905162521 30 59 6.4 14.5 0.00 0.00 0.00 73 1016.2
20260905162014 30 327 8.0 14.5 0.00 0.00 0.00 73 1016.2
20260905161532 30 38 8.0 16.1 0.00 0.00 0.00 74 1016.2
20260905161015 30 39 8.0 16.1 0.00 0.00 0.00 74 1016.2
20260905160516 30 74 8.0 16.1 0.00 0.00 0.00 74 1016.1
20260905160057 30 327 8.0 16.1 0.00 0.00 0.00 73 1016.1
20260905155519 30 55 8.0 12.9 0.00 0.00 0.00 75 1016.1